User: anonymous   Login
Location: Hurecourt
(47.9030°N, 6.0653°E)
Time: 10:12:55
(UTC+00:00)
Language:

Meteor 1-4 Rocket - Orbit

View from above orbital plane
View from above orbital plane
View from above satellite
View from above satellite

Ground track
Ground track

The orbit data is extracted from the following two-line orbital elements,

1  4394U 70037B   20269.89137651 +.00001031 +00000-0 +33631-4 0  9991
2  4394 081.2422 047.3680 0038454 352.7963 007.2715 15.30081612748129
Epoch (UTC): 25 September 2020 21:23:34
Eccentricity: 0.0038454
inclination: 81.2422°
perigee height: 449 km
apogee height: 502 km
right ascension of ascending node: 47.3680°
argument of perigee: 352.7963°
revolutions per day: 15.30081612
mean anomaly at epoch: 7.2715°
orbit number at epoch: 74812

The dashed part of the orbit path shows where the satellite is in the earth's shadow,  

DLR